Regional Weather Roundup
Issued by NWS Portland, ME

Home | Current Version | Previous Version | Text Only | Print | Product List | Glossary On
Versions: 1 2 3 4 5 6 7 8 9 10 11 12 13 14 15 16 17 18 19 20 21 22 23 24 25 26 27 28 29 30 31 32 33 34 35 36 37 38 39 40 41 42 43 44 45 46 47 48 49 50
000
ASUS41 KGYX 170410
RWRGYX
WEATHER ROUNDUP FOR MAINE AND NEW HAMPSHIRE
NATIONAL WEATHER SERVICE GRAY ME
1200 AM EDT THU APR 17 2014

MEZ002-005-006-010-012-015-018-020-021-024-026-027-029-170500-
MAINE

CITY           SKY/WX    TMP DP  RH WIND       PRES   REMARKS
PORTLAND       CLEAR     28  13  53 N7        30.63R
SANFORD        CLEAR     27 -20  12 NE6       30.62R
BAR HARBOR     CLEAR     27  16  63 N6        30.65R
WISCASSET      CLEAR     28  13  53 VRB3      30.65R
ROCKLAND       CLEAR     28  12  50 N7        30.64R
FRYEBURG       CLEAR     21  14  74 SW3       30.63R
LEWISTONAUBURN CLEAR     27  12  54 N12       30.62R WCI  16
AUGUSTA        CLEAR     24  13  62 N6        30.64R
WATERVILLE     CLEAR     25  16  68 CALM      30.60R
BANGOR         CLEAR     24  11  57 NW3       30.65R
GREENVILLE       N/A     18   9  68 N9        30.52R
MILLINOCKET    CLEAR     22  12  65 CALM      30.63R
HOULTON        CLEAR     21  10  62 CALM      30.60R
PRESQUE ISLE   NOT AVBL
FRENCHVILLE    CLEAR     16   7  67 SW3       30.54R
CARIBOU        CLEAR     20  10  65 NW6       30.58R
$$

NHZ002-005-008-009-011-012-014-170500-
NEW HAMPSHIRE

CITY           SKY/WX    TMP DP  RH WIND       PRES   REMARKS
PORTSMOUTH     CLEAR     31  13  46 NE6       30.62R
ROCHESTER      CLEAR     28  13  53 N6        30.61R
NASHUA         CLEAR     31  14  49 N3        30.62R
MANCHESTER     CLEAR     32  13  45 N5        30.60R
CONCORD        CLEAR     27  13  55 SE3       30.61R
LACONIA        CLEAR     27  10  50 CALM      30.61R
PLYMOUTH         N/A     25  20  83 CALM      30.62R
BERLIN         CLEAR     17  14  88 CALM      30.59R
WHITEFIELD     PTCLDY    16  12  84 CALM      30.61R
JAFFREY        CLEAR     27  17  66 CALM      30.57R
LEBANON        CLEAR     26  15  63 CALM      30.61R
MT WASHINGTON  PTCLDY    12 -18  24 NW32        N/A  WCI -10
$$

VTZ005-007-008-170500-
VERMONT

CITY           SKY/WX    TMP DP  RH WIND       PRES   REMARKS
ST JOHNSBURY     N/A     22  16  78 MISG      30.62R
MONTPELIER     CLEAR     19  14  81 CALM      30.63R
BURLINGTON     CLEAR     25  18  74 E6        30.65R
$$

MAZ007-012-024-CTZ003-RIZ002-NYZ038-NYZ072-170500-
SOUTHERN NEW ENGLAND AND NY

CITY           SKY/WX    TMP DP  RH WIND       PRES   REMARKS
BOSTON         CLEAR     34  14  43 N9        30.62R
WORCESTER      CLEAR     29  16  58 N6        30.55R
NANTUCKET      CLEAR     36  22  56 NE12      30.56R
PROVIDENCE     PTCLDY    35  16  45 NE12      30.60R
HARTFORD       CLEAR     32  19  58 N5        30.59R
ALBANY         CLEAR     30  14  51 NW5       30.61R
NEW YORK CITY  CLEAR     40  15  36 NE9       30.57R
$$

ANZ081-ANZ082-ANZ150-NHZ014-MEZ023>029-170500-
COASTAL MARINE OBSERVATIONS

STATION/POSITION TIME  TEMP    WIND        PRES    WAVE
                       AIR SEA DIR/SP/G            HT/PER
                 (UTC) (F)     (DEG/KT/KT) (MB)    (FT/S)
MOUNT DESERT ROC 0400   30                 1036.7R
MATINICUS ROCK   0300   32     360/ 20/ 22 1036.3R
PORTLAND WX BUOY 0400   33 39   10/ 17/ 21 1036.6R   3/11
WELLS            0400   30 36   20/  5/  7 1036.6R
ISLE OF SHOALS   0300   34      10/ 16/ 18 1035.5R
JEFFREYS LEDGE   0400      41                N/A     5/11
CASHES LEDGE BUO 0400   35 40  360/ 19/ 23 1036.0R   5/11
$$

.............KEY..............
   WCI - WIND CHILL
   TC  - TEMPERATURE IN CELSIUS
   VSB - VISIBILITY IN MILES
   HX  - HEAT INDEX
   FAIR- INDICATES FEW OR NO CLOUDS BELOW 12,000 FT, WITH NO
         SIGNIFICANT WEATHER AND/OR OBSTRUCTIONS TO VISIBILITY.





USA.gov is the U.S. government's official web portal to all federal, state and local government web resources and services.